Accueil
METAR-TAF:

METAR-TAF

Aéroports :

Pruniers

Romorantin, France

latitude: 47-19N, longitude: 001-41E, altitude: 85 m

Observation

Le bulletin a été fait il y a 29 minutes, à 19:30 UTC
Vent 1 kt de direction variable
Température 9°C
Humidité 87%
Pression 1028 hPa
Visibilité: 2800 m
pluie faible, brume

METAR: LFYR 201930Z AUTO VRB01KT 2800 -RA BR NSC 09/07 Q1028

Heure: 21:59 (19:59 UTC)


TAF: absent

Observations et prévisions météorologiques de plus de 4000 aéroports (messages METAR et TAF).

Les stations disponibles sont représentées par des disques jaunes et rouges sur la carte.

Passer la souris dessus pour voir le nom de la station.

Cliquer dessus pour voir les observations et prévisions météorologiques.

Pour changer de carte: cliquez sur les boutons verts avec une croix noire pour zoomer, sur le bouton vert avec un tiret pour effectuer un zoom arrière, ou sur les flèches vertes pour les cartes adjacentes.


METAR-TAF: